Brisbane, Australia

2:38 PM AEST on February 20, 2017 (GMT +1000)
Brisbane International

Weather History for YBBN - August, 2013

Change the Weather History Date:

Monday, August 19, 2013

  Actual Average Record
Temperature  
Mean Temperature 66 °F -  
Max Temperature 77 °F 74 °F 77 °F (2013)
Min Temperature 55 °F 53 °F 40 °F (2012)
Cooling Degree Days 1    
Growing Degree Days 16 (Base 50)    
Moisture  
Dew Point 56 °F    
Average Humidity 73    
Maximum Humidity 94    
Minimum Humidity 29    
Precipitation  
Precipitation 0.00 in 0.05 in - ()
Sea Level Pressure  
Sea Level Pressure 29.94 in    
Wind  
Wind Speed 5 mph ()    
Max Wind Speed 12 mph    
Max Gust Speed -    
Visibility 8.0 miles    
Events      
Averages and records for this station are not official NWS values.
T = Trace of Precipitation, MM = Missing Value Source: Averaged Metar Reports

Daily Weather History Graph

Daily Weather History Graph

Search for Another Location

Airport or City:

Trip Planner

Search our weather history database for the weather conditions in past years. The results will help you decide how hot, cold, wet, or windy it might be!

Date:

Astronomy

Aug. 19, 2013 Rise Set
Actual Time 6:14 AM AEST 5:28 PM AEST
Civil Twilight 5:50 AM AEST 5:52 PM AEST
Nautical Twilight 5:23 AM AEST 6:19 PM AEST
Astronomical Twilight 4:56 AM AEST 6:46 PM AEST
Moon 3:33 PM AEST (8/19) 4:12 AM AEST (8/19)
Length of Visible Light 12h 01m
Length of Day
11h 13m
Waxing Gibbous, 94% of the Moon is Illuminated
Aug 19
Waxing Gibbous
Aug 21
Full
Aug 28
Last Quarter
Sep 5
New
Sep 13
First Quarter

Hourly Weather History & Observations

Time (AEST) Temp. Dew Point Humidity Pressure Visibility Wind Dir Wind Speed Gust Speed Precip Events Conditions
12:00 AM 59 °F 55 °F 82% 30.04 in 19 mi WSW 3.5 mph - -   Partly Cloudy
12:00 AM 59.0 °F 55.4 °F 88% 30.04 in - WSW 3.5 mph - N/A   Clear
12:30 AM 57.2 °F 55.4 °F 94% 30.04 in - WSW 4.6 mph - N/A   Clear
1:00 AM 58 °F 55 °F 86% 30.03 in - SSW 4.6 mph - -  
1:00 AM 59.0 °F 55.4 °F 88% 30.01 in 6.2 mi SSW 4.6 mph - N/A   Scattered Clouds
1:30 AM 57.2 °F 55.4 °F 94% 30.01 in 6.2 mi Calm Calm - N/A   Mostly Cloudy
2:00 AM 57.2 °F 53.6 °F 88% 30.01 in 6.2 mi Calm Calm - N/A   Scattered Clouds
2:30 AM 57.2 °F 55.4 °F 94% 29.98 in 6.2 mi SSW 5.8 mph - N/A   Mostly Cloudy
3:00 AM 58 °F 55 °F 88% 29.99 in 19 mi SW 4.6 mph - -   Partly Cloudy
3:00 AM 59.0 °F 55.4 °F 88% 29.98 in 6.2 mi SW 4.6 mph - N/A   Mostly Cloudy
3:30 AM 59.0 °F 53.6 °F 82% 29.98 in 6.2 mi SSW 4.6 mph - N/A   Scattered Clouds
4:00 AM 59.0 °F 53.6 °F 82% 29.98 in 6.2 mi SSW 6.9 mph - N/A   Scattered Clouds
4:30 AM 57.2 °F 53.6 °F 88% 29.98 in 6.2 mi SSW 4.6 mph - N/A   Mostly Cloudy
5:00 AM 57.2 °F 53.6 °F 88% 29.98 in 6.2 mi SSW 8.1 mph - N/A   Mostly Cloudy
5:30 AM 55.4 °F 51.8 °F 88% 30.01 in 6.2 mi SSW 8.1 mph - N/A   Scattered Clouds
6:00 AM 56 °F 53 °F 84% 30.02 in 12 mi SSW 8.1 mph - -   Smoke
6:00 AM 55.4 °F 51.8 °F 88% 30.01 in 6.2 mi SSW 8.1 mph - N/A   Mostly Cloudy
6:30 AM 55.4 °F 51.8 °F 88% 30.01 in 6.2 mi SSW 5.8 mph - N/A   Scattered Clouds
7:00 AM 58 °F 53 °F 79% 30.03 in - SSW 5.8 mph - -  
7:00 AM 57.2 °F 53.6 °F 88% 30.01 in 6.2 mi SSW 5.8 mph - N/A   Scattered Clouds
7:30 AM 60.8 °F 53.6 °F 77% 30.01 in 6.2 mi South 5.8 mph - N/A   Mostly Cloudy
8:00 AM 62.6 °F 55.4 °F 77% 30.01 in 6.2 mi SSW 4.6 mph - N/A   Mostly Cloudy
8:30 AM 64.4 °F 55.4 °F 73% 30.01 in 6.2 mi SSW 5.8 mph - N/A   Mostly Cloudy
9:00 AM 67 °F 55 °F 57% 30.03 in 12 mi South 3.5 mph - -   Smoke
9:00 AM 66.2 °F 55.4 °F 68% 30.01 in 6.2 mi South 3.5 mph - N/A   Mostly Cloudy
9:30 AM 68.0 °F 57.2 °F 68% 30.01 in 6.2 mi SSW 4.6 mph - N/A   Scattered Clouds
10:00 AM 70 °F 58 °F 56% 30.01 in - East 3.5 mph - -  
10:00 AM 69.8 °F 57.2 °F 64% 30.01 in 6.2 mi East 3.5 mph - N/A   Scattered Clouds
10:30 AM 71.6 °F 59.0 °F 64% 29.98 in 6.2 mi North 8.1 mph - N/A   Scattered Clouds
11:00 AM 71.6 °F 60.8 °F 69% 29.98 in 6.2 mi NNE 6.9 mph - N/A   Scattered Clouds
11:30 AM 71.6 °F 59.0 °F 64% 29.95 in 6.2 mi NNE 6.9 mph - N/A   Partly Cloudy
12:00 PM 73 °F 58 °F 51% 29.93 in 9 mi North 9.2 mph - -   Haze
12:00 PM 73.4 °F 59.0 °F 61% 29.92 in 6.2 mi North 9.2 mph - N/A   Partly Cloudy
12:30 PM 71.6 °F 59.0 °F 64% 29.92 in 6.2 mi North 8.1 mph - N/A   Scattered Clouds
1:00 PM 74 °F 59 °F 49% 29.90 in - NE 8.1 mph - -  
1:00 PM 73.4 °F 59.0 °F 61% 29.89 in - NE 8.1 mph - N/A   Unknown
1:30 PM 77.0 °F 42.8 °F 29% 29.86 in 6.2 mi NE 9.2 mph - N/A   Partly Cloudy
2:00 PM 77.0 °F 42.8 °F 29% 29.86 in 6.2 mi North 8.1 mph - N/A   Partly Cloudy
2:30 PM 77.0 °F 46.4 °F 34% 29.86 in 6.2 mi North 10.4 mph - N/A   Partly Cloudy
3:00 PM 75 °F 56 °F 41% 29.85 in 19 mi North 9.2 mph - -   Partly Cloudy
3:00 PM 75.2 °F 55.4 °F 50% 29.83 in 6.2 mi North 9.2 mph - N/A   Scattered Clouds
3:30 PM 71.6 °F 59.0 °F 64% 29.83 in 6.2 mi North 10.4 mph - N/A   Mostly Cloudy
4:00 PM 72 °F 60 °F 58% 29.84 in - North 10.4 mph - -  
4:00 PM 71.6 °F 60.8 °F 69% 29.83 in 6.2 mi North 10.4 mph - N/A   Scattered Clouds
4:30 PM 69.8 °F 60.8 °F 73% 29.83 in 6.2 mi North 11.5 mph - N/A   Partly Cloudy
5:00 PM 68.0 °F 60.8 °F 78% 29.86 in 6.2 mi North 11.5 mph - N/A   Partly Cloudy
5:30 PM 68.0 °F 60.8 °F 78% 29.86 in 6.2 mi North 9.2 mph - N/A   Partly Cloudy
6:00 PM 65 °F 60 °F 78% 29.87 in 19 mi North 9.2 mph - -   Partly Cloudy
6:00 PM 66.2 °F 60.8 °F 83% 29.86 in 6.2 mi North 9.2 mph - N/A   Partly Cloudy
6:30 PM 66.2 °F 60.8 °F 83% 29.86 in 6.2 mi North 9.2 mph - N/A   Partly Cloudy
7:00 PM 66 °F 60 °F 75% 29.89 in - North 8.1 mph - -  
7:00 PM 66.2 °F 60.8 °F 83% 29.89 in - North 8.1 mph - N/A   Clear
7:30 PM 66.2 °F 59.0 °F 78% 29.89 in - NW 6.9 mph - N/A   Clear
8:00 PM 64.4 °F 59.0 °F 83% 29.89 in - NNW 4.6 mph - N/A   Clear
8:30 PM 64.4 °F 59.0 °F 83% 29.89 in - NW 1.2 mph - N/A   Clear
9:00 PM 64 °F 58 °F 74% 29.91 in 19 mi WNW 4.6 mph - -   Partly Cloudy
9:00 PM 64.4 °F 57.2 °F 77% 29.89 in - WNW 4.6 mph - N/A   Clear
9:30 PM 60.8 °F 55.4 °F 82% 29.89 in - NNW 2.3 mph - N/A   Clear
10:00 PM 60 °F 53 °F 71% 29.91 in - NW 3.5 mph - -  
10:00 PM 59.0 °F 53.6 °F 82% 29.89 in - NW 3.5 mph - N/A   Clear
10:30 PM 59.0 °F 50.0 °F 72% 29.89 in - West 5.8 mph - N/A   Clear
11:00 PM 60.8 °F 41.0 °F 48% 29.89 in - SW 6.9 mph - N/A   Clear
11:30 PM 59.0 °F 44.6 °F 59% 29.89 in - NE 2.3 mph - N/A   Clear